[[{"header":{"parameterUnit":"m.s-1","parameterCategory":1,"la1":30.2991,"la2":30.254,"lo1":-89.0895,"lo2":-89.0444,"dy":0.0017,"dx":0.0017,"nx":28,"ny":28,"refTime":"2024-10-08T09:00:00:Z","depth":0,"parameterNumber":2,"parameterNumberName":"U-component_of_WINDS"},"data":[0,0,0,0,0,0,0,0,0,0,0,0,0,0,0,0,0,0,0,0,0,0,0,0,0,0,0,0,0,0,0,0,0,0,0,0,0,0,0,0,0,0,0,0,0,0,0,0,0,0,0,0,0,0,0,0,0,0,-2.7545,-2.7546,0,-2.763,-2.7631,-2.7632,-2.7601,-2.7599,-2.7597,-2.7595,-2.7683,-2.7687,-2.7692,0,0,0,0,0,0,0,0,0,0,0,0,0,-2.7356,-2.7359,-2.7545,-2.7546,-2.7547,-2.763,-2.7631,-2.7632,-2.7601,-2.7599,-2.7596,-2.7594,-2.7682,-2.7687,-2.7692,0,0,0,0,0,0,0,0,0,0,0,0,0,-2.7439,-2.7361,-2.7544,-2.7541,-2.7542,-2.7629,-2.7631,-2.7632,-2.7601,-2.7599,-2.7596,-2.7593,-2.768,-2.7686,-2.7693,-2.7789,0,0,-2.7712,-2.7714,0,0,0,0,0,0,0,0,-2.7434,-2.7446,-2.7541,-2.7542,-2.7542,-2.7602,-2.7597,-2.7685,-2.7602,-2.7579,-2.7595,-2.7592,-2.7659,-2.7666,-2.7689,-2.7793,-2.7797,-2.7712,-2.7716,-2.7719,-2.772,0,0,0,0,0,0,0,-2.7429,-2.7442,-2.7578,-2.7542,-2.7543,-2.7536,-2.7544,-2.7613,-2.7634,-2.7581,-2.7579,-2.7589,-2.7659,-2.7683,-2.7691,-2.7798,-2.7712,-2.7718,-2.7721,-2.7724,-2.7986,-2.7989,0,0,0,0,0,0,-2.7422,-2.7438,-2.7576,-2.7581,-2.748,-2.7541,-2.7551,-2.7586,-2.7633,-2.7638,-2.7591,-2.7587,-2.7674,-2.7683,-2.7694,-2.7811,-2.7719,-2.7724,-2.7728,-2.7983,-2.7987,-2.799,0,0,0,0,0,0,-2.7418,-2.7435,-2.7572,-2.7509,-2.7526,-2.7548,-2.7587,-2.7589,-2.7613,-2.7641,-2.7645,-2.7613,-2.7672,-2.7685,-2.7765,-2.7813,-2.7727,-2.7733,-2.7979,-2.7984,-2.7989,-2.8044,0,0,0,0,0,0,-2.7413,-2.7434,-2.7471,-2.751,-2.7529,-2.7643,-2.759,-2.7593,-2.7624,-2.7619,-2.7662,-2.7666,-2.7671,-2.7756,-2.7772,-2.782,-2.7738,-2.7975,-2.7981,-2.7987,-2.8038,-2.8051,-2.8061,0,0,0,0,0,-2.7407,-2.7483,-2.7473,-2.7489,-2.7576,-2.7645,-2.7657,-2.766,-2.7628,-2.7665,-2.7683,-2.7665,-2.7805,-2.7765,-2.7782,-2.7833,-2.7972,-2.7979,-2.7987,-2.8033,-2.8048,-2.8061,0,0,0,0,0,0,-2.7449,-2.7488,-2.7477,-2.7568,-2.7604,-2.764,-2.7687,-2.7675,-2.7721,-2.7714,-2.7716,-2.7726,-2.781,-2.7829,-2.7784,-2.7929,-2.7884,-2.7895,-2.7914,-2.7928,-2.7939,-2.7933,-2.7743,0,0,0,0,0,-2.7469,-2.7522,-2.7553,-2.7631,-2.7649,-2.7665,-2.7696,-2.7695,-2.7732,-2.7747,-2.7771,-2.7808,-2.786,-2.7894,-2.7944,-2.804,-2.805,-2.8084,-2.8095,-2.8104,-2.8114,-2.8167,-2.8183,-2.8014,-2.8014,-2.8014,0,0,-2.7511,-2.7539,-2.7573,-2.764,-2.7668,-2.7724,-2.7678,-2.7739,-2.778,-2.7756,-2.7834,-2.7853,-2.7894,-2.7983,-2.8023,-2.8002,-2.8162,-2.8113,-2.812,-2.8126,-2.8177,-2.8193,-2.8207,-2.8019,-2.8018,-2.8017,0,0,-2.7617,-2.7642,-2.7711,-2.7739,-2.778,-2.779,-2.7807,-2.7845,-2.7856,-2.7934,-2.7917,-2.7966,-2.8056,-2.8087,-2.8114,-2.823,-2.8216,-2.8246,-2.8306,-2.8357,-2.8371,-2.8383,-2.8426,-2.8441,-2.8255,-2.8256,-2.8256,0,-2.7664,-2.7747,-2.7747,-2.781,-2.784,-2.782,-2.7889,-2.7916,-2.7972,-2.7994,-2.7969,-2.8081,-2.8107,-2.8204,-2.8232,-2.8254,-2.8273,-2.8242,-2.8369,-2.8381,-2.8392,-2.8433,-2.8449,-2.8259,-2.8259,-2.8258,-2.8258,0,-2.7804,-2.7862,-2.7911,-2.7966,-2.8002,-2.8067,-2.8078,-2.8114,-2.8109,-2.8122,-2.8202,-2.8232,-2.8288,-2.831,-2.8307,-2.8407,-2.8392,-2.8367,-2.8323,-2.8411,-2.845,-2.8466,-2.8264,-2.8263,-2.8262,-2.8261,0,0,-2.7941,-2.7994,-2.8012,-2.8037,-2.8081,-2.8126,-2.819,-2.8244,-2.8276,-2.8315,-2.837,-2.8446,-2.8423,-2.8454,-2.8453,-2.8499,-2.8591,-2.8469,-2.847,-2.8492,-2.8704,-2.8724,-2.8742,-2.858,-2.8583,-2.8585,-2.8701,0,-2.8051,-2.8165,-2.8166,-2.8271,-2.8324,-2.8305,-2.8361,-2.8395,-2.8408,-2.8456,-2.847,-2.8525,-2.849,-2.8509,-2.8552,-2.857,-2.8634,-2.8561,-2.8633,-2.8635,-2.8625,-2.8762,-2.8783,-2.8891,-2.8716,-2.8719,-2.8721,0,-2.8196,-2.824,-2.8349,-2.8386,-2.8409,-2.8459,-2.8509,-2.8554,-2.8592,-2.8598,-2.8632,-2.8625,-2.8691,-2.8642,-2.8734,-2.8685,-2.8713,-2.8726,-2.873,-2.8739,-2.8685,-2.8777,-2.8926,-2.8943,-2.8744,-2.8742,-2.8741,0,-2.8288,-2.8373,-2.845,-2.8472,-2.8516,-2.8552,-2.8572,-2.8606,-2.8639,-2.8682,-2.8703,-2.8753,-2.8782,-2.8821,-2.8827,-2.8791,-2.892,-2.8871,-2.8928,-2.8929,-2.8959,-2.8957,-2.9117,-2.8973,-2.8973,-2.8973,-2.8972,0,-2.8412,-2.8481,-2.8492,-2.854,-2.8616,-2.8616,-2.8691,-2.8708,-2.8739,-2.879,-2.8775,-2.8824,-2.8828,-2.8877,-2.8882,-2.8959,-2.8971,-2.8979,-2.898,-2.8981,-2.8981,-2.9002,-2.8996,-2.8977,-2.8976,-2.8975,-2.8975,0,-2.8528,-2.8538,-2.8621,-2.8656,-2.8666,-2.8721,-2.875,-2.8796,-2.8807,-2.8872,-2.8887,-2.8905,-2.8962,-2.8972,-2.9039,-2.9043,-2.9134,-2.9126,-2.9122,-2.9122,-2.9179,-2.9174,-2.936,-2.9385,-2.9223,-2.9225,-2.9226,0,-2.8608,-2.8661,-2.8701,-2.8734,-2.8756,-2.8809,-2.8842,-2.8844,-2.8879,-2.8925,-2.8965,-2.9021,-2.9066,-2.9159,-2.9179,-2.923,-2.9225,-2.9286,-2.9233,-2.9233,-2.9228,-2.9226,-2.9232,-2.9297,-2.9299,-2.9301,-2.9302,0,-2.875,-2.8753,-2.8801,-2.8851,-2.889,-2.893,-2.8967,-2.8995,-2.9002,-2.9042,-2.91,-2.9135,-2.9204,-2.926,-2.9312,-2.9332,-2.932,-2.9318,-2.9334,-2.9338,-2.9334,-2.9339,-2.9153,-2.9314,-2.9313,-2.9312,-2.9312,-2.9311,-2.8853,-2.8898,-2.8934,-2.8988,-2.9016,-2.9051,-2.9096,-2.9112,-2.9161,-2.9217,-2.9215,-2.928,-2.9315,-2.9383,-2.9407,-2.9458,-2.9438,-2.9462,-2.9468,-2.9474,-2.9481,-2.9324,-2.9467,-2.9467,-2.9466,-2.9466,-2.9466,0,-2.8995,-2.9017,-2.9067,-2.9119,-2.9162,-2.9144,-2.9184,-2.9221,-2.9278,-2.9312,-2.9357,-2.9424,-2.9479,-2.9502,-2.9555,-2.9592,-2.9587,-2.9606,-2.9604,-2.961,-2.9494,-2.9476,-2.9609,-2.9609,-2.9609,-2.9609,-2.9609,-2.9609,-2.9075,-2.9152,-2.9158,-2.9249,-2.927,-2.9334,-2.9358,-2.9391,-2.9418,-2.9494,-2.9539,-2.9553,-2.9583,-2.9639,-2.9688,-2.9693,-2.9714,-2.9737,-2.974,-2.9632,-2.9618,-2.9604,-2.9587,-2.9741,-2.9741,-2.9851,-2.9852,-2.9853]},{"header":{"parameterUnit":"m.s-1","parameterCategory":1,"la1":30.2991,"la2":30.254,"lo1":-89.0895,"lo2":-89.0444,"dy":0.0017,"dx":0.0017,"nx":28,"ny":28,"refTime":"2024-10-08T09:00:00:Z","depth":0,"parameterNumber":3,"parameterNumberName":"V-component_of_WINDS"},"data":[0,0,0,0,0,0,0,0,0,0,0,0,0,0,0,0,0,0,0,0,0,0,0,0,0,0,0,0,0,0,0,0,0,0,0,0,0,0,0,0,0,0,0,0,0,0,0,0,0,0,0,0,0,0,0,0,0,0,-3.9612,-3.9612,0,-3.9616,-3.9616,-3.9616,-3.955,-3.9548,-3.9546,-3.9545,-3.9548,-3.955,-3.9551,0,0,0,0,0,0,0,0,0,0,0,0,0,-3.9545,-3.9547,-3.9612,-3.9612,-3.9612,-3.9616,-3.9616,-3.9616,-3.955,-3.9548,-3.9546,-3.9544,-3.9547,-3.9549,-3.9552,0,0,0,0,0,0,0,0,0,0,0,0,0,-3.9564,-3.9547,-3.9612,-3.958,-3.9577,-3.9616,-3.9616,-3.9616,-3.9551,-3.9548,-3.9545,-3.9543,-3.9547,-3.9549,-3.9552,-3.9622,0,0,-3.956,-3.9561,0,0,0,0,0,0,0,0,-3.9563,-3.9567,-3.9584,-3.9582,-3.9579,-3.958,-3.9594,-3.9618,-3.9551,-3.9561,-3.9545,-3.9542,-3.9561,-3.9562,-3.9569,-3.9622,-3.9622,-3.956,-3.9562,-3.9563,-3.9564,0,0,0,0,0,0,0,-3.9562,-3.9566,-3.9614,-3.9585,-3.9581,-3.9564,-3.9564,-3.9598,-3.9576,-3.956,-3.9555,-3.9556,-3.9559,-3.9566,-3.9568,-3.9622,-3.956,-3.9562,-3.9564,-3.9565,-3.9733,-3.9736,0,0,0,0,0,0,-3.9565,-3.9566,-3.9613,-3.9614,-3.9564,-3.9568,-3.9568,-3.9582,-3.9575,-3.9571,-3.9559,-3.9553,-3.9563,-3.9565,-3.9568,-3.965,-3.9563,-3.9565,-3.9567,-3.973,-3.9734,-3.9737,0,0,0,0,0,0,-3.9564,-3.957,-3.9613,-3.9588,-3.9593,-3.9572,-3.9589,-3.9584,-3.9591,-3.9574,-3.957,-3.9571,-3.9561,-3.9564,-3.9609,-3.9649,-3.9566,-3.9569,-3.9727,-3.9731,-3.9735,-3.9814,0,0,0,0,0,0,-3.9563,-3.957,-3.9597,-3.959,-3.9594,-3.9655,-3.9591,-3.9586,-3.9596,-3.9589,-3.9584,-3.9581,-3.9559,-3.9606,-3.9612,-3.9651,-3.9571,-3.9723,-3.9729,-3.9734,-3.9808,-3.982,-3.9831,0,0,0,0,0,-3.956,-3.9619,-3.9599,-3.9605,-3.9627,-3.9657,-3.966,-3.9634,-3.96,-3.9626,-3.9615,-3.9581,-3.9644,-3.9611,-3.9617,-3.9658,-3.9721,-3.9727,-3.9734,-3.9802,-3.9818,-3.9831,0,0,0,0,0,0,-3.9631,-3.9617,-3.9595,-3.9653,-3.9657,-3.9646,-3.9679,-3.9651,-3.9665,-3.9658,-3.9624,-3.9624,-3.9674,-3.967,-3.9634,-3.9725,-3.9676,-3.9684,-3.9726,-3.9741,-3.9752,-3.9752,-3.9573,0,0,0,0,0,-3.9654,-3.968,-3.9666,-3.9718,-3.9721,-3.97,-3.9712,-3.9692,-3.9694,-3.9696,-3.9688,-3.9692,-3.9712,-3.9726,-3.9743,-3.9807,-3.9804,-3.9838,-3.9849,-3.9859,-3.9867,-3.99,-3.9914,-3.9758,-3.9758,-3.9758,0,0,-3.97,-3.9696,-3.9714,-3.9732,-3.9733,-3.976,-3.9702,-3.9733,-3.9753,-3.97,-3.9742,-3.9737,-3.9738,-3.9793,-3.9816,-3.9791,-3.9909,-3.9868,-3.9875,-3.9878,-3.9908,-3.9923,-3.9936,-3.9763,-3.9762,-3.9761,0,0,-3.9799,-3.9798,-3.9842,-3.9844,-3.9846,-3.9831,-3.9841,-3.9835,-3.983,-3.9871,-3.9832,-3.9855,-3.9891,-3.9893,-3.99,-3.9999,-3.9968,-4.0006,-4.0068,-4.01,-4.0112,-4.0123,-4.0159,-4.0172,-4.0013,-4.0013,-4.0014,0,-3.9856,-3.9896,-3.9867,-3.9901,-3.991,-3.9864,-3.9908,-3.9911,-3.9918,-3.9926,-3.9897,-3.9941,-3.9939,-3.9993,-4.0018,-4.0024,-4.0035,-4.0006,-4.0113,-4.0123,-4.0133,-4.0167,-4.018,-4.0018,-4.0017,-4.0017,-4.0017,0,-3.9966,-3.9995,-4.003,-4.0039,-4.0051,-4.009,-4.0067,-4.0083,-4.0061,-4.005,-4.0092,-4.0088,-4.0104,-4.0116,-4.0095,-4.0167,-4.0152,-4.0119,-4.0069,-4.0153,-4.0184,-4.0197,-4.0025,-4.0023,-4.0022,-4.002,0,0,-4.011,-4.0103,-4.0116,-4.012,-4.0118,-4.0139,-4.0176,-4.0192,-4.0206,-4.0213,-4.0243,-4.0274,-4.0243,-4.0251,-4.0229,-4.0258,-4.0337,-4.0221,-4.0221,-4.0243,-4.0417,-4.0442,-4.0457,-4.0317,-4.0319,-4.0321,-4.0417,0,-4.0206,-4.0269,-4.0243,-4.0308,-4.0333,-4.029,-4.0321,-4.0323,-4.0313,-4.0333,-4.0322,-4.0345,-4.0303,-4.0307,-4.0333,-4.0322,-4.0372,-4.0315,-4.0344,-4.0345,-4.0345,-4.0473,-4.05,-4.0591,-4.0429,-4.0431,-4.0432,0,-4.0327,-4.0339,-4.0406,-4.04,-4.041,-4.0439,-4.0451,-4.0471,-4.0473,-4.0463,-4.0471,-4.0444,-4.0478,-4.0429,-4.0476,-4.0438,-4.0448,-4.0445,-4.0447,-4.0449,-4.0394,-4.0479,-4.0619,-4.0633,-4.0451,-4.0449,-4.0448,0,-4.0425,-4.0458,-4.0502,-4.0507,-4.0501,-4.0522,-4.0521,-4.052,-4.0531,-4.0542,-4.0549,-4.0563,-4.0572,-4.0583,-4.056,-4.0526,-4.0611,-4.0559,-4.0604,-4.0605,-4.0624,-4.0624,-4.0768,-4.0631,-4.0631,-4.063,-4.063,0,-4.0535,-4.0578,-4.0547,-4.0574,-4.062,-4.0591,-4.0637,-4.0631,-4.063,-4.0655,-4.0618,-4.0642,-4.061,-4.0631,-4.0613,-4.0655,-4.0659,-4.0653,-4.0647,-4.0656,-4.0657,-4.0663,-4.0656,-4.0634,-4.0633,-4.0632,-4.0632,0,-4.0654,-4.0634,-4.0679,-4.067,-4.0669,-4.0703,-4.0695,-4.072,-4.0707,-4.0739,-4.0745,-4.0725,-4.0748,-4.0726,-4.0747,-4.0735,-4.0792,-4.0777,-4.0791,-4.0787,-4.0834,-4.083,-4.0987,-4.1006,-4.0857,-4.0858,-4.0859,0,-4.0725,-4.0757,-4.0751,-4.0766,-4.0766,-4.079,-4.0801,-4.0773,-4.0786,-4.079,-4.0815,-4.0834,-4.0848,-4.0887,-4.0874,-4.089,-4.0876,-4.093,-4.0878,-4.0886,-4.0877,-4.0876,-4.0879,-4.0941,-4.0942,-4.0944,-4.0945,0,-4.0855,-4.0844,-4.0861,-4.0876,-4.0891,-4.0901,-4.0908,-4.0922,-4.0893,-4.091,-4.0932,-4.0944,-4.0966,-4.0986,-4.0998,-4.0996,-4.0966,-4.0961,-4.0973,-4.0982,-4.0989,-4.0986,-4.082,-4.0958,-4.0957,-4.0956,-4.0955,-4.0955,-4.0952,-4.0978,-4.0978,-4.0999,-4.1002,-4.1009,-4.1032,-4.1022,-4.1041,-4.1057,-4.1039,-4.1067,-4.1068,-4.1081,-4.1082,-4.1104,-4.1081,-4.1097,-4.1102,-4.1106,-4.1113,-4.0986,-4.1106,-4.1105,-4.1105,-4.1105,-4.1104,0,-4.108,-4.1078,-4.1097,-4.1109,-4.1125,-4.1096,-4.1102,-4.1118,-4.1143,-4.1146,-4.1161,-4.1187,-4.1207,-4.1195,-4.1212,-4.1231,-4.1218,-4.1236,-4.1235,-4.1235,-4.1132,-4.1121,-4.1247,-4.1247,-4.1247,-4.1247,-4.1247,-4.1247,-4.1148,-4.1191,-4.118,-4.1224,-4.1221,-4.1248,-4.1254,-4.1261,-4.1263,-4.1295,-4.131,-4.1303,-4.13,-4.1316,-4.1332,-4.1328,-4.1336,-4.136,-4.1351,-4.1256,-4.1242,-4.1229,-4.1218,-4.1362,-4.1362,-4.1452,-4.1452,-4.1453]}]]